Lapse_Rate
6.9 6.7 6.5 6.6 6.5 6.1 6.2 6.3 6.4 6.5 6.8 7.0 7.1 7.4 7.5 7.8 7.8 8.2 8.4 8.5 8.2 8.6 8.6 8.4 7.9 8.1 7.6 7.5 7.5 6.8 6.5 6.1 6.4 6.9 7.0 6.0 6.1 5.8 5.9 6.3 6.5 6.5 6.3 6.3 6.4 6.5 6.4 6.4 6.4
6.9 6.7 6.6 6.4 6.3 6.2 6.4 6.5 6.7 6.9 7.0 7.0 7.2 7.6 7.8 7.8 7.9 8.0 8.4 8.1 8.1 8.3 8.5 8.3 8.3 7.9 7.8 7.4 7.4 7.0 6.7 6.3 6.2 6.9 6.8 6.0 6.1 5.8 6.0 6.2 6.4 6.1 6.2 6.4 6.6 6.7 6.6 6.6 6.3
6.8 6.7 6.6 6.5 6.3 6.4 6.4 6.8 7.0 7.1 7.3 7.4 7.6 7.6 7.6 8.0 7.8 7.8 7.9 7.8 7.9 7.9 8.1 8.0 8.1 7.7 7.2 7.1 6.9 6.8 6.7 6.5 6.5 6.6 6.5 6.1 6.0 5.8 6.0 6.1 6.2 6.2 6.3 6.5 6.6 6.4 6.3 6.3 6.3
6.8 6.7 6.6 6.5 6.4 6.6 6.7 6.9 7.2 7.2 7.1 7.3 7.3 7.5 7.5 7.4 7.5 7.4 7.5 7.5 7.7 7.8 7.7 7.7 8.0 7.7 7.3 6.7 6.5 6.3 6.4 6.5 6.7 6.4 6.7 5.9 5.9 5.9 5.8 6.2 6.1 6.2 6.4 6.4 6.4 6.3 6.2 6.2 6.2
6.8 6.7 6.7 6.3 6.6 6.7 6.9 7.2 7.2 7.2 7.4 7.3 7.2 7.2 7.3 7.3 7.2 7.2 7.3 7.6 7.5 7.7 7.5 7.6 7.9 7.5 7.1 6.6 6.2 6.2 6.3 6.2 6.0 6.3 6.5 6.0 5.6 5.6 5.9 6.1 6.0 6.3 6.4 6.3 6.2 6.0 6.0 6.2 6.0
6.7 6.7 6.4 6.5 6.6 6.8 7.0 7.3 7.2 7.3 7.3 7.2 7.2 7.2 7.4 7.3 7.3 7.3 7.2 7.4 7.4 7.7 7.4 7.3 7.3 6.5 6.7 6.3 6.0 5.9 5.8 6.0 5.8 5.3 6.3 5.8 5.7 5.8 6.2 6.0 6.1 6.1 6.3 6.4 6.1 5.8 6.0 6.1 5.9
6.7 6.5 6.6 6.6 6.5 6.7 7.1 7.1 7.2 7.2 7.1 7.1 6.9 7.0 7.2 7.2 7.3 7.3 7.2 6.9 7.3 7.3 7.3 7.0 7.0 7.0 6.7 6.5 6.1 5.7 5.6 5.6 5.5 5.7 6.0 6.1 5.7 6.0 6.1 6.0 5.8 6.1 6.2 6.1 6.1 6.1 6.1 6.1 6.3
6.6 6.4 6.6 6.6 6.6 6.9 7.0 6.9 7.1 7.4 7.1 7.0 6.9 6.8 7.0 7.2 7.2 7.1 7.0 6.7 6.9 7.1 7.1 6.6 6.1 6.6 6.5 6.3 6.1 5.8 5.5 5.5 5.5 5.1 5.7 5.8 6.0 5.7 6.0 5.9 5.9 6.2 5.9 5.9 6.2 6.2 6.1 6.2 6.4
6.5 6.4 6.7 6.6 6.6 6.8 6.9 6.8 7.2 7.4 7.1 6.9 6.6 6.8 6.9 7.1 7.2 6.8 6.4 6.4 6.8 7.2 7.1 6.7 6.4 6.3 6.3 6.2 5.9 5.6 5.5 5.5 5.2 4.4 5.4 5.6 5.4 5.6 6.2 5.7 6.0 6.0 5.9 6.0 6.2 6.1 5.9 6.2 6.3
6.4 6.4 6.8 6.7 6.4 6.9 6.9 6.9 7.3 7.4 7.2 7.0 6.7 6.8 6.8 6.9 6.7 6.4 6.3 6.3 6.0 6.4 6.5 6.4 6.4 6.3 6.3 5.9 5.3 5.4 5.6 5.4 5.2 4.8 5.4 5.5 5.6 5.8 5.9 5.6 5.9 6.0 6.1 6.2 6.2 6.1 5.9 5.9 6.1
6.6 6.7 6.8 6.8 6.5 7.0 7.0 7.1 7.3 7.4 7.3 7.0 6.7 6.7 6.5 6.4 6.1 5.9 5.9 6.3 6.2 6.2 6.3 6.5 6.2 6.1 5.9 6.0 5.8 5.5 5.5 5.1 5.1 4.6 4.9 5.4 5.3 5.4 5.6 5.8 6.0 6.1 6.0 6.0 5.9 5.9 6.0 5.8 5.8
6.5 6.7 6.6 6.9 6.5 6.8 7.0 7.4 7.3 7.3 7.3 7.1 6.7 6.6 6.4 5.9 4.9 5.1 5.6 6.3 6.7 6.5 6.6 6.3 6.0 5.6 5.6 5.4 5.5 5.5 5.4 4.8 4.8 4.4 4.9 5.1 5.3 4.9 5.5 5.8 5.8 6.0 6.1 6.0 5.9 5.9 5.9 5.8 5.8
6.3 6.7 6.6 6.9 6.8 6.8 6.8 7.2 7.5 7.6 7.3 7.2 6.8 6.7 6.7 6.2 5.3 5.2 5.9 6.5 6.8 6.7 6.3 6.2 5.8 5.8 5.4 5.2 5.4 5.3 5.2 4.7 5.0 4.3 4.3 4.8 4.9 5.0 5.4 5.4 5.8 6.2 6.2 6.2 6.2 6.0 5.9 6.0 6.0
6.6 6.6 6.7 7.0 6.9 6.9 6.9 7.2 7.6 7.6 7.4 7.3 7.1 6.8 6.9 6.5 6.1 6.1 6.3 6.4 6.5 6.5 6.1 6.2 5.9 5.8 5.5 5.2 5.3 5.0 4.7 4.7 4.3 4.3 4.4 4.2 4.6 5.0 5.2 5.3 5.8 6.0 6.1 6.1 5.8 5.9 6.1 6.1 6.2
6.6 6.4 6.7 7.0 6.9 6.8 6.8 7.4 7.7 7.6 7.6 7.4 7.3 6.8 7.0 6.9 6.6 6.6 6.7 6.7 6.2 6.0 5.7 6.0 6.0 5.6 5.5 5.3 5.0 5.1 4.6 4.5 4.6 4.1 3.8 4.0 4.4 4.8 5.2 5.0 5.7 5.9 5.9 5.9 5.8 5.8 5.9 6.0 6.1
6.6 6.3 6.6 6.8 6.9 6.9 7.0 7.8 7.5 7.6 7.8 7.5 7.2 7.0 7.0 7.1 6.8 6.9 7.0 7.0 6.5 5.5 5.5 5.6 6.1 5.7 5.3 5.2 5.2 4.8 4.9 4.8 4.6 4.5 4.3 4.4 4.3 4.7 4.8 5.0 5.1 5.7 5.7 5.7 5.6 5.6 5.9 6.0 6.0
6.8 6.5 6.6 6.8 6.7 6.8 7.0 7.7 7.7 7.9 8.0 7.8 7.3 7.2 7.1 7.1 7.1 7.1 7.1 6.9 6.4 5.5 5.2 5.5 5.8 5.8 5.4 5.1 5.2 4.8 4.8 4.8 4.8 4.6 4.2 4.2 4.3 4.8 4.9 5.0 5.1 5.2 5.5 5.3 5.5 5.7 6.0 6.2 6.4
7.2 7.0 6.5 6.7 6.9 6.8 7.0 7.6 7.8 8.1 8.3 8.0 7.6 7.5 7.3 7.1 7.1 7.2 7.2 7.1 6.7 5.8 5.4 5.7 5.2 5.4 5.7 5.5 5.1 5.0 5.3 5.0 4.8 4.7 4.4 4.4 4.5 4.8 4.8 4.7 5.0 5.3 5.2 5.1 5.6 5.9 6.0 6.3 6.5
7.0 6.8 6.7 6.9 6.8 6.8 6.8 7.3 7.9 8.1 8.4 8.5 7.9 7.7 7.6 7.2 7.1 7.2 7.2 7.1 7.0 6.6 6.1 5.7 5.4 5.2 5.6 5.7 5.3 5.5 5.4 5.1 4.7 4.7 4.5 4.6 4.3 4.6 4.6 4.9 5.1 5.0 5.2 5.0 5.6 6.2 6.4 6.5 6.8
6.7 6.7 6.9 7.3 6.9 6.9 7.1 7.1 7.7 7.9 8.5 8.5 8.3 8.0 7.8 7.5 7.2 7.1 7.2 7.0 7.0 6.8 6.5 6.3 5.7 5.5 5.5 5.5 5.3 5.4 5.4 5.0 5.1 4.8 4.5 4.5 4.5 4.6 4.7 4.9 5.1 5.2 5.2 5.3 6.1 6.5 6.4 6.4 6.8
6.7 6.3 7.0 7.3 7.2 6.8 6.7 6.9 7.6 7.7 7.9 8.4 8.2 8.2 8.1 7.9 7.4 7.2 7.1 7.1 6.9 7.0 6.8 6.6 6.2 5.7 5.5 5.4 5.5 5.2 5.1 5.1 5.1 4.8 4.6 4.5 4.6 4.6 4.6 4.8 5.2 5.1 5.2 5.6 6.1 6.4 6.6 6.4 6.6
6.3 6.8 7.1 6.9 6.9 6.7 6.7 6.3 7.1 7.8 8.0 8.4 8.4 8.3 8.3 8.2 7.6 7.4 7.3 7.2 7.1 7.0 7.1 6.9 6.7 6.4 5.8 5.6 5.7 5.4 5.5 5.6 5.5 5.5 4.9 4.6 4.8 4.6 4.7 5.0 4.9 4.9 5.0 5.3 5.9 5.9 6.2 6.3 6.4
7.0 6.9 7.2 6.8 6.7 6.2 6.3 6.5 6.7 7.6 8.0 8.3 8.5 8.3 8.3 8.4 8.2 7.6 7.4 7.5 7.4 7.3 7.2 7.2 7.1 7.0 6.6 5.9 5.5 5.4 5.3 5.0 5.1 5.0 5.0 4.6 4.8 4.8 4.8 5.1 5.1 5.0 5.3 5.7 5.7 5.6 5.7 6.2 6.2
6.7 6.6 6.6 6.4 6.2 5.8 6.1 7.0 6.5 7.3 8.1 8.3 8.1 8.4 8.4 8.3 8.2 8.0 7.6 7.6 7.7 7.5 7.4 7.2 7.2 7.2 7.1 6.9 6.5 6.0 5.5 5.5 5.2 5.0 5.0 4.9 5.0 5.4 5.3 5.3 5.3 5.4 5.7 6.2 6.1 5.8 5.8 6.2 6.3
6.4 6.4 6.5 6.5 6.2 6.3 6.8 6.6 7.1 7.4 7.8 8.2 8.1 8.3 8.3 8.2 8.2 8.2 8.0 7.9 7.9 7.8 7.6 7.6 7.4 7.3 7.2 7.2 7.1 6.9 6.6 6.3 6.2 5.9 5.8 5.6 5.3 5.3 5.3 5.1 5.0 5.3 6.0 6.2 6.0 5.9 6.0 5.9 6.0
7.1 6.6 7.0 7.0 6.7 7.1 6.5 6.4 7.1 7.6 7.8 7.9 8.1 8.2 8.3 8.1 8.1 8.2 8.1 7.9 7.9 7.8 7.7 7.7 7.6 7.6 7.5 7.2 7.0 7.0 7.1 7.0 6.9 6.8 6.7 6.6 6.5 6.1 5.6 5.6 5.9 6.2 6.3 6.2 6.1 5.9 5.9 5.8 6.0
6.7 6.4 7.3 6.9 6.5 6.5 6.8 6.8 7.3 7.4 7.6 7.9 7.9 8.0 8.3 8.2 8.3 8.2 8.0 7.9 7.8 7.8 7.8 7.8 7.7 7.6 7.7 7.6 7.5 7.4 7.4 7.4 7.4 7.2 7.1 7.0 6.9 6.8 6.8 6.7 6.6 6.6 6.4 6.1 6.2 6.1 5.9 5.6 5.8
7.0 7.4 7.1 6.9 6.9 6.7 6.4 6.5 7.3 7.5 7.9 8.6 7.7 7.8 8.0 8.4 8.4 8.4 8.3 8.1 7.9 7.9 7.8 7.7 7.8 7.8 7.7 7.7 7.6 7.7 7.7 7.8 7.6 7.5 7.4 7.4 7.3 7.1 7.0 6.9 6.7 6.6 6.5 6.1 5.8 5.7 5.7 6.0 6.1
7.0 6.8 7.1 7.0 7.0 7.0 6.7 6.8 7.4 7.8 7.6 7.9 7.8 7.8 8.0 8.4 8.6 8.6 8.4 8.3 8.0 7.8 7.6 7.7 7.8 7.8 7.8 7.9 7.9 7.7 7.8 7.8 7.6 7.4 7.5 7.4 7.3 7.1 6.8 6.5 6.4 6.3 6.2 6.0 5.9 6.1 6.1 6.0 5.9
6.9 6.8 6.7 6.6 6.7 6.2 6.1 6.4 7.7 7.6 7.8 8.2 8.4 8.1 8.1 8.3 8.6 8.8 8.7 8.5 8.4 8.0 7.9 8.1 8.0 7.9 8.0 7.9 7.7 7.8 7.8 7.6 7.7 7.8 7.9 7.7 7.5 7.0 6.7 6.8 6.2 5.9 5.8 6.0 5.9 6.1 5.7 5.7 5.8
Wind_Speed
3 5 2 2 2 1 1 2 2 4 2 2 1 4 3 3 6 4 2 3 2 13 16 19 18 21 22 25 24 25 27 29 30 31 32 25 26 26 27 28 28 29 28 28 27 27 26 26 26
5 3 2 2 2 1 0 2 5 6 5 4 6 5 5 3 2 2 1 1 3 14 16 19 18 21 22 24 26 27 27 27 29 31 31 26 26 27 28 28 29 29 29 30 28 27 26 26 25
4 2 1 3 3 2 2 5 6 5 6 3 2 2 2 1 0 1 5 1 1 11 18 19 19 21 23 24 25 27 27 27 24 27 31 26 28 28 28 28 28 29 29 30 28 26 26 25 24
2 2 3 1 2 3 4 5 6 4 2 5 2 5 2 1 1 3 3 2 2 9 18 18 19 24 25 26 28 28 28 29 29 25 30 28 28 28 27 27 27 28 28 26 27 26 25 24 23
3 2 1 1 3 4 5 6 7 5 2 4 4 2 2 4 1 2 3 3 4 6 18 21 19 23 25 25 26 27 27 27 30 28 29 28 28 28 26 25 25 24 24 24 26 25 25 25 24
2 1 1 3 3 4 5 6 3 4 3 2 3 3 2 1 2 3 2 1 4 4 10 19 21 19 20 23 23 25 26 28 26 30 29 27 28 27 26 24 21 22 25 26 27 25 25 24 24
3 3 3 3 3 4 3 3 3 2 2 2 1 3 2 2 4 3 1 2 2 7 7 10 18 18 17 19 21 25 26 28 28 30 32 26 27 26 24 21 20 24 27 28 27 25 25 25 26
4 2 4 4 2 3 2 3 1 4 2 3 2 4 2 1 2 2 2 1 2 6 7 5 13 14 12 11 20 20 28 29 28 30 30 27 27 26 24 21 24 29 28 27 27 25 24 24 24
3 2 4 4 6 2 3 4 3 1 3 3 3 3 2 1 2 1 2 3 3 0 9 10 13 19 17 14 13 12 29 31 27 29 31 28 25 25 25 21 25 27 27 26 26 25 23 22 23
3 4 8 6 5 4 7 8 4 4 5 4 4 4 4 2 2 4 2 4 3 1 1 9 11 13 17 17 17 11 20 26 31 24 28 24 23 22 23 23 23 24 26 25 24 25 23 20 19
5 5 5 5 10 7 5 5 6 5 6 5 6 8 7 3 4 5 2 0 3 2 1 3 10 12 13 12 10 6 10 17 20 22 24 24 22 21 20 19 20 20 24 22 22 22 17 16 16
4 8 6 3 4 2 3 3 4 8 1 4 4 9 6 4 3 2 4 6 5 6 6 6 7 8 11 11 7 9 10 15 20 18 21 22 17 18 16 16 17 18 18 20 20 15 16 15 14
6 4 6 8 7 7 5 7 5 6 5 6 9 9 7 5 4 3 2 4 8 7 8 8 8 7 2 13 10 9 10 14 11 18 19 20 19 13 17 16 16 15 17 17 17 16 16 15 15
6 7 7 6 6 3 5 3 1 2 9 9 10 8 7 6 7 4 4 2 8 8 9 9 10 9 7 13 9 6 10 6 9 12 15 17 19 16 16 16 15 14 16 16 16 16 16 14 15
2 5 7 6 4 4 6 5 8 5 11 10 9 7 8 7 7 6 6 6 4 5 6 11 11 11 8 12 12 10 13 9 5 7 10 14 19 18 17 14 13 14 14 14 12 12 13 12 12
3 2 6 1 3 1 6 13 4 8 12 11 9 8 8 9 8 7 6 6 6 4 8 10 9 10 9 7 9 11 12 10 6 4 8 11 18 18 16 13 11 14 13 12 11 10 8 7 7
1 7 5 5 3 3 5 6 2 7 12 12 12 10 9 9 9 7 8 7 8 8 5 9 12 14 12 9 8 9 15 14 15 8 10 13 15 16 16 14 13 14 12 11 10 7 8 7 6
8 4 4 7 1 2 3 14 8 10 13 14 12 12 11 11 12 8 8 8 8 9 9 9 7 10 13 10 8 5 7 15 17 11 11 15 16 17 14 12 13 13 10 7 7 8 6 6 6
6 5 5 3 5 3 4 12 13 8 12 12 12 13 13 13 10 9 8 9 9 9 10 10 11 9 10 9 10 9 9 10 10 16 19 18 17 17 16 12 12 12 9 10 8 6 8 5 6
6 6 7 5 3 7 6 13 11 7 8 14 15 14 14 12 12 12 11 9 10 10 11 10 10 13 10 6 6 7 8 7 10 12 15 18 18 18 16 13 11 12 8 8 9 9 5 4 8
10 12 6 8 5 3 3 5 7 3 6 7 12 15 14 17 15 16 15 14 11 11 12 12 13 13 12 11 6 4 5 4 7 8 6 11 14 19 17 16 13 12 9 9 11 11 11 8 7
12 10 7 6 3 4 2 5 7 6 8 7 10 15 15 17 17 16 18 16 16 14 12 13 15 14 13 13 8 10 12 11 8 9 5 7 12 15 15 16 15 15 14 10 10 9 9 8 9
10 8 12 9 7 3 3 5 4 4 7 11 9 13 16 18 20 20 21 19 17 16 15 14 16 17 16 15 14 9 12 9 6 6 7 5 9 16 15 14 14 10 7 11 11 10 11 9 7
5 5 3 3 2 7 9 7 5 8 11 5 6 7 11 17 19 19 18 17 16 15 15 14 16 17 18 18 17 15 13 13 10 9 8 9 8 6 14 16 14 13 11 10 10 10 11 11 10
7 6 2 4 5 8 2 8 12 8 12 12 13 12 3 12 16 18 19 19 18 19 18 17 20 19 19 20 19 18 17 15 16 13 11 11 8 7 10 12 11 9 13 12 11 10 11 12 11
13 10 5 7 5 3 4 6 5 9 13 11 9 9 5 9 13 19 22 21 20 21 20 20 22 20 20 20 20 19 19 12 12 14 12 10 9 9 10 10 13 14 14 13 13 9 9 10 10
6 8 5 0 1 2 3 4 9 6 9 7 9 6 10 6 13 17 18 20 20 21 23 23 22 22 22 22 18 18 17 18 15 16 11 11 11 10 12 12 12 11 13 14 12 9 10 11 11
8 8 3 1 5 8 3 3 6 3 11 12 8 9 11 5 8 13 16 19 19 20 19 20 22 23 23 22 18 17 18 18 17 14 16 16 13 13 13 14 14 13 13 12 12 10 10 11 7
4 7 2 2 3 4 3 4 8 12 7 7 8 8 8 8 7 12 14 16 17 17 19 20 20 21 20 19 19 18 18 18 17 17 19 20 19 18 18 19 17 16 16 15 14 14 11 11 13
2 1 3 7 6 1 0 5 4 8 8 8 11 11 10 9 6 9 12 15 16 18 18 20 20 20 19 18 18 19 18 18 19 19 19 16 16 16 16 14 16 16 15 14 12 11 9 11 8
Wind_Direction
139 124 104 61 168 7 318 241 273 277 259 203 181 229 236 228 241 291 345 324 299 167 173 161 144 138 134 137 139 141 141 145 137 135 130 135 130 130 127 126 124 123 125 122 120 118 115 115 112
132 105 72 89 111 84 45 244 241 245 233 245 259 230 228 256 223 296 235 169 281 173 166 163 153 141 140 140 141 143 148 142 139 135 129 135 132 130 129 129 128 128 127 124 122 121 121 117 111
122 45 114 91 111 174 225 219 251 257 225 231 244 220 256 239 64 347 357 273 245 167 172 166 153 147 142 143 144 143 142 136 135 133 129 134 134 134 133 134 133 133 128 123 125 121 120 118 112
129 76 85 216 210 225 226 229 227 286 217 218 250 266 222 73 259 341 354 310 305 155 173 160 153 148 144 145 149 147 143 140 137 133 132 139 138 135 134 136 138 136 138 130 126 124 122 117 110
48 77 103 213 254 257 243 267 243 242 276 185 192 255 240 139 305 45 355 323 171 177 171 163 158 151 142 141 146 145 143 139 137 140 137 138 139 136 138 135 137 134 130 132 131 126 124 117 116
92 86 178 222 237 256 273 246 192 227 247 180 234 266 242 220 305 348 337 229 202 193 173 170 158 147 136 139 144 143 141 138 144 138 134 138 138 136 135 132 135 135 132 131 130 128 124 120 120
157 146 219 214 238 280 244 170 212 243 267 256 125 253 287 260 318 315 314 224 205 185 225 169 155 142 138 144 146 147 149 147 147 137 133 137 139 132 128 127 135 139 132 132 131 128 128 128 125
127 127 179 225 203 268 257 207 185 196 249 128 164 256 280 329 324 274 145 181 79 200 215 168 162 145 155 157 156 156 156 155 148 137 127 132 127 124 124 129 133 134 136 135 132 132 134 131 129
153 161 218 209 190 246 208 241 165 91 180 189 195 245 284 166 135 259 99 134 123 354 201 179 175 156 161 165 178 187 166 154 157 133 124 129 134 137 135 137 137 137 137 135 135 137 135 133 130
193 196 216 203 198 257 287 236 241 200 184 223 240 215 217 202 156 240 210 190 162 145 168 176 161 164 166 168 181 184 164 157 163 137 135 139 138 140 139 137 136 136 139 138 140 137 135 135 131
184 225 213 233 233 255 275 257 190 211 233 207 214 201 187 201 207 183 147 311 152 154 36 99 162 165 160 165 156 131 141 135 162 144 140 138 135 138 138 135 135 138 140 144 141 138 146 141 139
214 235 224 253 211 190 235 167 233 213 186 153 191 173 170 199 209 184 158 143 128 117 111 126 141 148 174 150 123 100 136 149 181 145 142 138 135 147 142 144 145 145 150 151 154 158 143 139 141
225 248 209 243 257 245 172 223 256 230 163 133 133 152 177 195 195 134 190 166 156 141 130 133 135 131 122 147 138 94 125 159 150 139 146 143 143 146 148 147 149 148 147 154 153 155 145 144 149
205 231 252 279 257 215 198 221 223 173 147 147 157 164 178 197 200 179 184 202 176 154 146 142 137 130 109 142 126 108 126 144 107 137 146 141 143 146 153 155 152 151 150 156 157 158 153 155 156
176 277 293 241 239 210 175 239 232 165 167 170 170 183 182 201 200 210 199 194 160 170 136 150 134 136 124 126 138 133 145 158 133 117 139 157 149 154 156 162 160 152 156 151 153 153 150 153 161
171 127 260 263 183 123 212 278 267 174 172 188 186 194 200 190 214 223 212 191 175 148 161 150 144 144 139 125 142 139 140 155 157 168 166 176 149 162 161 167 163 153 152 159 152 155 147 151 160
199 236 230 302 201 147 204 271 186 182 196 194 190 200 209 207 217 215 201 194 182 176 147 151 152 159 157 132 134 134 148 160 183 201 186 181 166 172 171 172 165 156 159 174 153 165 152 157 171
197 209 227 242 115 207 211 263 269 205 205 212 200 192 205 216 211 216 195 188 184 184 168 144 146 155 154 149 153 149 152 165 191 204 190 182 181 183 179 177 167 163 165 179 166 168 154 163 168
163 174 211 203 230 270 246 276 299 229 219 219 216 205 202 216 212 194 202 190 185 177 164 158 160 150 150 151 157 169 169 168 186 204 196 185 186 190 192 177 175 180 183 187 178 169 173 164 167
191 204 240 300 241 212 289 306 309 200 228 217 217 214 206 204 203 193 195 197 193 187 180 165 162 159 160 148 156 175 165 178 187 185 171 184 188 189 192 181 185 188 191 196 187 190 171 182 180
219 225 228 243 333 247 276 276 305 248 243 229 216 225 208 202 197 198 192 201 192 195 185 179 168 171 172 162 134 130 127 131 167 178 163 178 190 196 191 190 189 194 197 204 205 201 191 192 189
234 204 221 237 282 262 347 289 281 287 283 253 239 212 213 203 197 194 196 196 199 196 194 186 183 173 178 165 165 179 180 177 185 188 169 159 194 206 195 193 185 200 196 209 212 208 211 207 204
236 167 205 232 234 286 219 249 233 276 267 258 251 230 213 205 195 194 197 193 198 194 192 189 187 188 181 178 182 191 195 197 166 180 168 164 210 210 206 211 196 206 196 225 221 201 209 215 219
188 191 73 62 160 252 210 215 238 232 247 247 256 232 219 201 200 199 198 188 191 198 196 193 191 192 189 186 188 196 195 195 188 186 194 197 208 212 215 218 217 211 207 215 220 218 210 218 219
184 147 218 215 208 243 174 190 256 249 243 236 255 277 193 197 196 192 189 192 186 193 196 194 198 198 194 191 192 195 199 198 203 200 205 205 211 217 226 221 223 221 226 219 222 218 219 221 218
193 191 181 214 214 233 140 218 233 249 267 271 259 269 269 198 198 198 193 193 193 190 193 194 197 200 197 197 199 198 201 205 209 212 218 221 224 223 213 215 222 227 225 226 225 226 228 222 226
156 193 204 91 102 301 229 264 285 296 272 271 259 247 262 235 209 208 197 194 195 193 193 194 196 202 201 201 199 201 200 205 207 215 214 220 226 227 224 225 230 226 226 224 221 221 223 220 217
203 157 167 142 226 243 213 245 226 302 244 248 261 273 282 270 213 204 199 196 199 200 197 197 200 202 201 203 203 204 204 206 208 205 211 217 223 225 229 234 230 228 223 219 219 218 219 214 211
164 210 184 180 183 238 218 235 221 240 249 261 250 256 278 280 227 206 203 199 202 196 195 199 203 203 205 204 203 203 203 203 204 209 213 216 217 214 216 221 225 224 223 216 212 218 214 207 221
46 193 207 233 228 131 309 243 323 269 305 282 276 279 276 272 257 216 198 192 196 203 198 199 200 203 202 202 203 204 203 204 208 215 219 216 220 222 228 228 223 224 225 225 216 213 212 227 214